KC1HBM Weather Reports


Display with metric or nautical units.
time (UTC)temp
F
wind
direction
speed
MPH
gust
MPH
rain 1hr
in
rain 24hr
in
rain mn
in
humidity
%
barometer
mb
20260831072417 60 314 0.0 0.0 0.00 0.00 0.00 87 1015.6
20260831071914 60 316 0.0 0.0 0.00 0.00 0.00 88 1015.8
20260831071412 60 311 0.0 0.0 0.00 0.00 0.00 88 1015.7
20260831070907 60 311 0.0 0.0 0.00 0.00 0.00 88 1015.5
20260831070406 60 308 0.0 0.0 0.00 0.00 0.00 89 1015.6
20260831065905 60 311 0.0 0.0 0.00 0.00 0.00 89 1015.4
20260831065404 60 314 0.0 0.0 0.00 0.00 0.00 91 1015.7
20260831064859 59 313 0.0 0.0 0.00 0.00 0.00 92 1015.6
20260831064354 60 311 0.0 0.0 0.00 0.00 0.00 92 1015.5
20260831063850 60 311 0.0 0.0 0.00 0.00 0.00 92 1015.5
20260831063344 60 316 0.0 0.0 0.00 0.00 0.00 92 1015.5
20260831062844 60 307 0.0 0.0 0.00 0.00 0.00 91 1015.6
20260831062340 60 311 0.0 0.0 0.00 0.00 0.00 91 1015.4
20260831061838 60 311 0.0 0.0 0.00 0.00 0.00 90 1015.4
20260831061337 60 311 0.0 0.0 0.00 0.00 0.00 90 1015.3
20260831060834 60 316 0.0 0.0 0.00 0.00 0.00 90 1015.1
20260831060328 60 311 0.0 0.0 0.00 0.00 0.00 90 1015.1
20260831055828 60 311 0.0 0.0 0.00 0.00 0.00 89 1015.2
20260831055323 60 311 0.0 0.0 0.00 0.00 0.00 90 1015.2
20260831054818 60 311 0.0 0.0 0.00 0.00 0.00 90 1015.1
20260831054313 60 312 0.0 0.0 0.00 0.00 0.00 91 1014.9
20260831053812 60 311 0.0 0.0 0.00 0.00 0.00 92 1015.0
20260831053311 60 312 0.0 0.0 0.00 0.00 0.00 93 1015.0
20260831052806 60 311 0.0 0.0 0.00 0.00 0.00 93 1014.9
20260831052307 60 311 0.0 0.0 0.00 0.00 0.00 92 1014.7
20260831051803 60 311 0.0 0.0 0.00 0.00 0.00 92 1014.4
20260831051302 60 311 0.0 0.0 0.00 0.00 0.00 92 1014.6
20260831050757 60 311 0.0 0.0 0.00 0.00 0.00 92 1014.5
20260831050256 61 311 0.0 0.0 0.00 0.00 0.00 91 1014.7
20260831045745 61 311 0.0 0.0 0.00 0.00 0.00 91 1014.6
20260831045245 61 311 0.0 0.0 0.00 0.00 0.00 90 1014.6
20260831044739 61 311 0.0 0.0 0.00 0.00 0.00 90 1014.6
20260831044234 61 311 0.0 0.0 0.00 0.00 0.00 89 1014.7
20260831043730 62 311 0.0 0.0 0.00 0.00 0.00 89 1014.6
20260831043225 62 311 0.0 0.0 0.00 0.00 0.00 88 1014.6
20260831042725 62 311 0.0 0.0 0.00 0.00 0.00 87 1014.6
20260831042220 62 311 0.0 0.0 0.00 0.00 0.00 87 1014.8
20260831041715 63 311 0.0 0.0 0.00 0.00 0.00 87 1014.8
20260831041214 63 311 0.0 0.0 0.00 0.00 0.00 87 1014.5
20260831040709 63 309 0.0 0.0 0.00 0.00 0.00 86 1014.7
20260831040209 64 314 0.0 0.0 0.00 0.00 0.00 84 1014.6
20260831035707 64 315 0.0 0.0 0.00 0.00 0.00 85 1014.5
20260831035202 64 314 0.0 0.0 0.00 0.00 0.00 85 1014.4
20260831034701 64 311 0.0 0.0 0.00 0.00 0.00 86 1014.5
20260831034156 64 311 0.0 0.0 0.00 0.00 0.00 86 1014.7
20260831033652 64 311 0.0 0.0 0.00 0.00 0.00 86 1014.5
20260831033146 64 316 0.0 0.0 0.00 0.00 0.00 85 1014.3
20260831032646 64 311 0.0 0.0 0.00 0.00 0.00 84 1014.1
20260831032142 64 312 0.0 0.0 0.00 0.00 0.00 83 1014.3
20260831031641 65 311 0.0 0.0 0.00 0.00 0.00 83 1014.4
20260831031136 65 311 0.0 0.0 0.00 0.00 0.00 83 1014.4
20260831030634 65 316 0.0 0.0 0.00 0.00 0.00 83 1014.5
20260831030134 66 315 0.0 0.0 0.00 0.00 0.00 82 1014.5
20260831025632 66 271 1.0 2.0 0.00 0.00 0.00 80 1014.6
20260831025127 66 311 0.0 0.0 0.00 0.00 0.00 78 1014.8
20260831024624 67 311 0.0 0.0 0.00 0.00 0.00 76 1014.8
20260831024122 67 336 0.0 0.0 0.00 0.00 0.00 74 1014.8
20260831023621 68 313 1.0 2.0 0.00 0.00 0.00 72 1014.8
20260831023120 68 303 1.0 2.0 0.00 0.00 0.00 72 1014.7
20260831022615 68 319 0.0 1.0 0.00 0.00 0.00 73 1014.6
20260831022110 69 313 1.0 2.0 0.00 0.00 0.00 75 1014.6
20260831021609 70 315 1.0 1.0 0.00 0.00 0.00 70 1014.2
20260831021105 70 305 1.0 1.0 0.00 0.00 0.00 70 1014.3
20260831020601 71 311 0.0 0.0 0.00 0.00 0.00 75 1014.0
20260831020055 71 310 0.0 0.0 0.00 0.00 0.00 75 1013.8
20260831015551 71 310 0.0 0.0 0.00 0.00 0.00 74 1013.5
20260831015045 71 310 0.0 0.0 0.00 0.00 0.00 74 1013.4
20260831014540 71 310 0.0 0.0 0.00 0.00 0.00 74 1013.5
20260831014036 71 310 0.0 0.0 0.00 0.00 0.00 74 1013.4
20260831013532 71 310 0.0 0.0 0.00 0.00 0.00 74 1013.2
20260831013026 71 310 0.0 0.0 0.00 0.00 0.00 74 1013.2
20260831012521 71 312 0.0 0.0 0.00 0.00 0.00 74 1013.0
20260831012021 71 313 0.0 0.0 0.00 0.00 0.00 75 1013.0
20260831011515 71 313 0.0 0.0 0.00 0.00 0.00 74 1012.8
20260831011010 71 313 0.0 0.0 0.00 0.00 0.00 73 1013.0
20260831010505 71 313 0.0 0.0 0.00 0.00 0.00 72 1012.9
20260831010001 71 313 0.0 0.0 0.00 0.00 0.00 72 1012.8
20260831005456 71 313 0.0 0.0 0.00 0.00 0.00 72 1012.9
20260831004955 72 313 0.0 0.0 0.00 0.00 0.00 71 1012.8
20260831004453 72 313 0.0 0.0 0.00 0.00 0.00 72 1012.7
20260831003948 71 313 0.0 0.0 0.00 0.00 0.00 71 1012.8
20260831003444 72 313 0.0 0.0 0.00 0.00 0.00 71 1012.6
20260831002943 72 313 0.0 0.0 0.00 0.00 0.00 72 1012.5
20260831002442 71 312 0.0 0.0 0.00 0.00 0.00 72 1012.6
20260831001938 71 311 0.0 0.0 0.00 0.00 0.00 73 1012.8
20260831001433 71 311 0.0 0.0 0.00 0.00 0.00 74 1012.6
20260831000930 71 311 0.0 0.0 0.00 0.00 0.00 75 1012.5
20260831000426 71 311 0.0 0.0 0.00 0.00 0.00 74 1012.5
20260830235924 71 311 0.0 0.0 0.00 0.00 0.00 75 1012.2
20260830235419 71 311 0.0 0.0 0.00 0.00 0.00 74 1012.3
20260830234914 71 311 0.0 0.0 0.00 0.00 0.00 74 1012.4
20260830234409 72 311 0.0 0.0 0.00 0.00 0.00 74 1012.3
20260830233905 72 311 0.0 0.0 0.00 0.00 0.00 74 1012.4
20260830233400 72 311 0.0 0.0 0.00 0.00 0.00 73 1012.3
20260830232856 73 312 0.0 0.0 0.00 0.00 0.00 73 1012.1
20260830232351 73 311 0.0 0.0 0.00 0.00 0.00 71 1012.2
20260830231848 73 309 0.0 0.0 0.00 0.00 0.00 71 1012.3
20260830231343 73 309 0.0 0.0 0.00 0.00 0.00 70 1012.2
20260830230842 73 309 0.0 0.0 0.00 0.00 0.00 70 1012.4
20260830230338 73 309 0.0 0.0 0.00 0.00 0.00 70 1012.4
20260830225837 73 309 0.0 0.0 0.00 0.00 0.00 70 1012.4
20260830225332 73 309 0.0 0.0 0.00 0.00 0.00 70 1012.4
20260830224827 73 309 0.0 0.0 0.00 0.00 0.00 69 1012.2
20260830224321 74 309 0.0 0.0 0.00 0.00 0.00 69 1012.3
20260830223818 74 309 0.0 0.0 0.00 0.00 0.00 69 1012.3
20260830223314 74 310 0.0 0.0 0.00 0.00 0.00 69 1012.3
20260830222808 74 311 0.0 0.0 0.00 0.00 0.00 68 1012.3
20260830222306 74 322 1.0 2.0 0.00 0.00 0.00 67 1012.5
20260830221758 75 317 1.0 1.0 0.00 0.00 0.00 66 1012.5
20260830221256 75 314 0.0 0.0 0.00 0.00 0.00 66 1012.6
20260830220756 75 312 0.0 1.0 0.00 0.00 0.00 65 1012.3
20260830220255 75 317 0.0 0.0 0.00 0.00 0.00 65 1012.6
20260830215753 75 310 0.0 0.0 0.00 0.00 0.00 65 1012.7
20260830215248 75 311 0.0 0.0 0.00 0.00 0.00 65 1012.7
20260830214743 75 312 0.0 0.0 0.00 0.00 0.00 65 1012.5
20260830214243 75 311 1.0 1.0 0.00 0.00 0.00 65 1012.6
20260830213742 75 319 0.0 1.0 0.00 0.00 0.00 64 1012.6
20260830213237 75 309 0.0 1.0 0.00 0.00 0.00 65 1012.6
20260830212734 75 307 0.0 1.0 0.00 0.00 0.00 66 1012.8
20260830212229 75 325 1.0 1.0 0.00 0.00 0.00 65 1012.9
20260830211729 75 306 1.0 1.0 0.00 0.00 0.00 66 1012.7
20260830211228 76 304 1.0 1.0 0.00 0.00 0.00 66 1012.6
20260830210724 75 307 0.0 0.0 0.00 0.00 0.00 66 1012.7
20260830210223 75 309 0.0 1.0 0.00 0.00 0.00 66 1012.7
20260830205720 76 307 1.0 1.0 0.00 0.00 0.00 67 1012.7
20260830205215 76 307 1.0 1.0 0.00 0.00 0.00 66 1012.6
20260830204710 76 308 0.0 1.0 0.00 0.00 0.00 65 1012.7
20260830204209 75 311 0.0 1.0 0.00 0.00 0.00 66 1012.9
20260830203706 75 305 2.0 2.0 0.00 0.00 0.00 66 1012.7
20260830203201 75 305 1.0 1.0 0.00 0.00 0.00 66 1013.1
20260830202701 75 308 1.0 1.0 0.00 0.00 0.00 67 1012.9
20260830202156 75 310 0.0 0.0 0.00 0.00 0.00 67 1012.6
20260830201655 75 310 0.0 0.0 0.00 0.00 0.00 67 1012.8
20260830201150 75 302 1.0 2.0 0.00 0.00 0.00 67 1013.0
20260830200646 75 309 0.0 1.0 0.00 0.00 0.00 67 1013.0
20260830200145 75 311 0.0 0.0 0.00 0.00 0.00 67 1013.2
20260830195641 75 308 0.0 0.0 0.00 0.00 0.00 68 1013.1
20260830195139 75 304 1.0 1.0 0.00 0.00 0.00 67 1013.1
20260830194637 75 310 0.0 0.0 0.00 0.00 0.00 67 1013.5
20260830194132 75 310 0.0 0.0 0.00 0.00 0.00 67 1013.3
20260830193627 75 306 1.0 1.0 0.00 0.00 0.00 67 1013.3
20260830193127 75 308 0.0 2.0 0.00 0.00 0.00 69 1013.5
20260830192623 75 309 0.0 0.0 0.00 0.00 0.00 69 1013.5
20260830192117 75 308 0.0 0.0 0.00 0.00 0.00 70 1013.6
20260830191613 75 304 1.0 1.0 0.00 0.00 0.00 70 1013.7
20260830191108 75 310 0.0 0.0 0.00 0.00 0.00 71 1013.6
20260830190604 74 311 1.0 1.0 0.00 0.00 0.00 72 1013.8
20260830190058 74 310 0.0 0.0 0.00 0.00 0.00 73 1013.8
20260830185551 74 308 1.0 1.0 0.00 0.00 0.00 73 1013.8
20260830185047 74 296 0.0 1.0 0.00 0.00 0.00 74 1013.9
20260830184546 73 304 1.0 1.0 0.00 0.00 0.00 76 1013.9
20260830184040 73 309 0.0 0.0 0.00 0.00 0.00 77 1014.2
20260830183535 73 307 0.0 1.0 0.00 0.00 0.00 76 1014.2
20260830183031 73 311 0.0 1.0 0.00 0.00 0.00 77 1014.3
20260830182526 73 308 1.0 1.0 0.00 0.00 0.00 76 1014.3
20260830182022 73 309 0.0 0.0 0.00 0.00 0.00 74 1014.2
20260830181518 73 307 1.0 1.0 0.00 0.00 0.00 74 1014.4
20260830181017 73 305 1.0 1.0 0.00 0.00 0.00 75 1014.6
20260830180512 73 310 0.0 0.0 0.00 0.00 0.00 76 1014.7
20260830180011 73 309 0.0 0.0 0.00 0.00 0.00 75 1014.6
20260830175505 73 309 0.0 1.0 0.00 0.00 0.00 74 1014.6
20260830175000 73 312 0.0 1.0 0.00 0.00 0.00 75 1014.7
20260830174455 73 303 2.0 3.0 0.00 0.00 0.00 75 1014.7
20260830173950 73 313 1.0 1.0 0.00 0.00 0.00 74 1014.7
20260830173446 74 306 1.0 1.0 0.00 0.00 0.00 75 1014.9
20260830172941 75 304 1.0 1.0 0.00 0.00 0.00 72 1014.3
20260830172438 76 309 0.0 1.0 0.00 0.00 0.00 69 1014.5
20260830171933 77 306 0.0 0.0 0.00 0.00 0.00 66 1014.6
20260830171429 77 306 0.0 0.0 0.00 0.00 0.00 63 1014.7
20260830170928 77 306 1.0 1.0 0.00 0.00 0.00 63 1014.8
20260830170428 78 308 1.0 1.0 0.00 0.00 0.00 61 1014.8
20260830165926 78 305 1.0 1.0 0.00 0.00 0.00 61 1014.6
20260830165422 79 306 1.0 1.0 0.00 0.00 0.00 59 1014.5
20260830164913 80 305 0.0 0.0 0.00 0.00 0.00 59 1014.3
20260830164409 80 304 1.0 1.0 0.00 0.00 0.00 59 1014.7
20260830163905 80 311 1.0 1.0 0.00 0.00 0.00 57 1014.7
20260830163401 80 308 2.0 2.0 0.00 0.00 0.00 57 1014.5
20260830162900 80 313 1.0 1.0 0.00 0.00 0.00 58 1014.6
20260830162356 80 307 0.0 0.0 0.00 0.00 0.00 58 1014.6
20260830161852 80 304 1.0 2.0 0.00 0.00 0.00 59 1014.6
20260830161351 80 302 1.0 2.0 0.00 0.00 0.00 58 1014.7
20260830160847 81 305 1.0 1.0 0.00 0.00 0.00 57 1014.8
20260830160342 80 306 1.0 1.0 0.00 0.00 0.00 58 1014.9
20260830155837 81 309 1.0 1.0 0.00 0.00 0.00 58 1014.8
20260830155334 82 308 0.0 1.0 0.00 0.00 0.00 56 1015.0
20260830154834 82 310 0.0 1.0 0.00 0.00 0.00 55 1014.9
20260830154330 82 307 0.0 1.0 0.00 0.00 0.00 56 1015.0
20260830153826 82 306 0.0 1.0 0.00 0.00 0.00 57 1015.0
20260830153321 82 313 0.0 1.0 0.00 0.00 0.00 56 1015.2
20260830152820 82 315 0.0 0.0 0.00 0.00 0.00 55 1015.2
20260830152314 80 307 1.0 1.0 0.00 0.00 0.00 56 1015.3
20260830151809 80 307 1.0 1.0 0.00 0.00 0.00 57 1015.3
20260830151308 79 308 1.0 1.0 0.00 0.00 0.00 61 1015.3
20260830150804 79 304 1.0 2.0 0.00 0.00 0.00 58 1015.2
20260830150303 78 312 0.0 1.0 0.00 0.00 0.00 60 1015.4
20260830145758 78 306 2.0 3.0 0.00 0.00 0.00 62 1015.5
20260830145253 78 307 1.0 1.0 0.00 0.00 0.00 59 1015.3
20260830144748 79 304 1.0 1.0 0.00 0.00 0.00 60 1015.5
20260830144244 78 299 1.0 2.0 0.00 0.00 0.00 59 1015.6
20260830143740 77 308 1.0 1.0 0.00 0.00 0.00 63 1015.7
20260830143238 76 314 0.0 1.0 0.00 0.00 0.00 63 1015.8
20260830142733 75 317 0.0 0.0 0.00 0.00 0.00 65 1015.8
20260830142228 75 306 1.0 1.0 0.00 0.00 0.00 65 1015.8
20260830141723 75 313 0.0 0.0 0.00 0.00 0.00 64 1015.9
20260830141219 75 306 0.0 1.0 0.00 0.00 0.00 64 1015.9
20260830140713 73 309 0.0 0.0 0.00 0.00 0.00 68 1016.1
20260830140208 74 324 0.0 1.0 0.00 0.00 0.00 66 1015.9
20260830135703 73 310 0.0 1.0 0.00 0.00 0.00 70 1016.0
20260830135158 72 320 0.0 0.0 0.00 0.00 0.00 68 1016.0
20260830134654 72 312 1.0 2.0 0.00 0.00 0.00 68 1016.0
20260830134149 72 308 0.0 1.0 0.00 0.00 0.00 69 1016.2
20260830133645 70 305 1.0 1.0 0.00 0.00 0.00 71 1016.2
20260830133140 69 324 1.0 1.0 0.00 0.00 0.00 72 1016.3
20260830132636 69 309 0.0 1.0 0.00 0.00 0.00 73 1016.3
20260830132132 69 304 1.0 1.0 0.00 0.00 0.00 73 1016.4
20260830131630 68 312 0.0 1.0 0.00 0.00 0.00 73 1016.1
20260830131125 68 307 1.0 1.0 0.00 0.00 0.00 75 1016.2
20260830130620 68 311 0.0 1.0 0.00 0.00 0.00 75 1016.2
20260830130115 68 311 1.0 1.0 0.00 0.00 0.00 76 1016.3
20260830125614 67 310 0.0 1.0 0.00 0.00 0.00 76 1016.2
20260830125114 68 310 1.0 1.0 0.00 0.00 0.00 75 1016.3
20260830124613 67 310 0.0 0.0 0.00 0.00 0.00 78 1016.3
20260830124108 66 314 0.0 0.0 0.00 0.00 0.00 78 1016.5
20260830123606 65 304 0.0 1.0 0.00 0.00 0.00 79 1016.5
20260830123100 65 311 0.0 0.0 0.00 0.00 0.00 81 1016.5
20260830122557 64 314 0.0 1.0 0.00 0.00 0.00 80 1016.4
20260830122053 64 313 0.0 1.0 0.00 0.00 0.00 80 1016.5
20260830121549 64 309 0.0 0.0 0.00 0.00 0.00 81 1016.5
20260830121048 64 309 0.0 1.0 0.00 0.00 0.00 80 1016.5
20260830120543 64 311 0.0 0.0 0.00 0.00 0.00 80 1016.5
20260830120040 64 309 0.0 0.0 0.00 0.00 0.00 80 1016.5
20260830115536 64 311 0.0 0.0 0.00 0.00 0.00 80 1016.8
20260830115031 64 310 0.0 0.0 0.00 0.00 0.00 81 1016.7
20260830114528 64 310 0.0 0.0 0.00 0.00 0.00 80 1016.9
20260830114027 65 310 0.0 0.0 0.00 0.00 0.00 78 1016.7
20260830113522 64 311 0.0 1.0 0.00 0.00 0.00 78 1016.5
20260830113017 64 308 0.0 0.0 0.00 0.00 0.00 79 1016.6
20260830112513 65 309 0.0 0.0 0.00 0.00 0.00 78 1016.7
20260830112009 67 303 0.0 0.0 0.00 0.00 0.00 74 1016.6
20260830111505 66 308 0.0 1.0 0.00 0.00 0.00 76 1016.7
20260830111000 65 308 1.0 1.0 0.00 0.00 0.00 77 1016.6
20260830110455 64 309 0.0 1.0 0.00 0.00 0.00 77 1016.3
20260830105954 63 311 0.0 1.0 0.00 0.00 0.00 79 1016.2
20260830105451 63 310 0.0 0.0 0.00 0.00 0.00 80 1016.4
20260830104947 62 309 0.0 0.0 0.00 0.00 0.00 82 1016.3
20260830104443 61 310 0.0 0.0 0.00 0.00 0.00 83 1016.5
20260830103938 60 313 0.0 0.0 0.00 0.00 0.00 85 1016.8
20260830103434 60 311 0.0 0.0 0.00 0.00 0.00 86 1016.7
20260830102932 60 308 0.0 0.0 0.00 0.00 0.00 86 1016.7
20260830102427 59 311 0.0 0.0 0.00 0.00 0.00 87 1016.7
20260830101924 59 310 0.0 0.0 0.00 0.00 0.00 86 1016.7
20260830101419 59 312 0.0 0.0 0.00 0.00 0.00 86 1016.9
20260830100918 59 313 0.0 0.0 0.00 0.00 0.00 87 1016.6
20260830100417 59 312 0.0 0.0 0.00 0.00 0.00 87 1016.9
20260830095916 59 312 0.0 0.0 0.00 0.00 0.00 87 1016.6
20260830095412 59 316 0.0 0.0 0.00 0.00 0.00 86 1016.9
20260830094908 60 311 0.0 0.0 0.00 0.00 0.00 86 1016.8
20260830094404 60 311 0.0 0.0 0.00 0.00 0.00 86 1016.8
20260830093900 59 312 0.0 0.0 0.00 0.00 0.00 87 1017.2
20260830093355 59 313 0.0 0.0 0.00 0.00 0.00 86 1016.9
20260830092850 59 317 0.0 0.0 0.00 0.00 0.00 87 1016.9
20260830092346 59 312 0.0 0.0 0.00 0.00 0.00 87 1017.1
20260830091843 59 314 0.0 1.0 0.00 0.00 0.00 87 1017.3
20260830091342 59 313 0.0 0.0 0.00 0.00 0.00 87 1017.1
20260830090841 59 312 0.0 0.0 0.00 0.00 0.00 88 1017.2
20260830090337 59 313 0.0 0.0 0.00 0.00 0.00 88 1017.1
20260830085836 59 314 0.0 0.0 0.00 0.00 0.00 88 1017.1
20260830085331 59 307 0.0 0.0 0.00 0.00 0.00 88 1017.2
20260830084827 59 311 0.0 0.0 0.00 0.00 0.00 88 1017.2
20260830084322 59 309 0.0 0.0 0.00 0.00 0.00 88 1017.2
20260830083817 59 311 0.0 0.0 0.00 0.00 0.00 89 1017.3
20260830083313 59 310 0.0 0.0 0.00 0.00 0.00 89 1017.0
20260830082813 60 309 0.0 0.0 0.00 0.00 0.00 88 1017.0
20260830082308 59 308 0.0 0.0 0.00 0.00 0.00 88 1017.0
20260830081803 59 311 0.0 0.0 0.00 0.00 0.00 89 1017.1
20260830081303 59 311 0.0 0.0 0.00 0.00 0.00 90 1016.9
20260830080757 59 310 0.0 0.0 0.00 0.00 0.00 89 1017.0
20260830080254 60 311 0.0 0.0 0.00 0.00 0.00 89 1017.0
20260830075753 60 311 0.0 0.0 0.00 0.00 0.00 89 1016.8
20260830075248 59 312 0.0 0.0 0.00 0.00 0.00 90 1017.1
20260830074743 59 309 0.0 0.0 0.00 0.00 0.00 91 1017.1
20260830074240 59 310 0.0 0.0 0.00 0.00 0.00 91 1017.1
20260830073735 59 311 0.0 0.0 0.00 0.00 0.00 92 1017.1
20260830073231 59 310 0.0 0.0 0.00 0.00 0.00 93 1017.0